{"data":{"norad_id":62777,"intl_designator":"2025-015V","name":"STARLINK-33591","alt_names":[],"object_type":"PAYLOAD","status":"ACTIVE","operator":null,"country":"US","launch_date":"2025-01-21","launch_site_code":"AFWTR","launch_vehicle":null,"mission":null,"orbit_class":"UNKNOWN","rcs_meters":null,"size_class":null,"mass_kg":null,"dimensions":null,"purposes":["comms"],"wikipedia_slug":null,"has_3d_model":false,"image_url":null,"decayed_at":null,"tle_current":{"epoch":"2026-05-24T19:43:34.857408Z","epoch_age_seconds":97407,"freshness":"FRESH","line1":"1 62777U 25015V   26144.82193122  .00021077  00000+0  63312-3 0  9991","line2":"2 62777  53.1589 328.3828 0001049  81.5594 278.5528 15.34403835 76143","mean_motion":15.34403835,"eccentricity":0.0001049,"inclination_deg":53.1589,"raan_deg":328.3828,"arg_perigee_deg":81.5594,"mean_anomaly_deg":278.5528,"bstar":0.00063312,"rev_number":7614,"period_min":93.847523523688,"perigee_km":461.97423885715,"apogee_km":463.40944474816,"semimajor_km":6840.8288418027,"source":"CELESTRAK","updated_at":"2026-05-25T13:38:19.747353Z"}}}